Fargo, ND

12:53 AM CDT on October 23, 2019 (GMT -0500)
Hector International

Weather History for KFAR - September, 2019

Change the Weather History Date:

Sunday, September 22, 2019

  Actual Average Record
Temperature  
Mean Temperature 60 °F 56 °F  
Max Temperature 71 °F 68 °F 101 °F (1936)
Min Temperature 49 °F 45 °F 23 °F (1995)
Degree Days  
Heating Degree Days 5 9  
Month to date heating degree days 85 130  
Since 1 July heating degree days 130 180  
Cooling Degree Days 0 1  
Month to date cooling degree days 56 40  
Year to date cooling degree days 527 545  
Growing Degree Days 10 (Base 50)    
Moisture  
Dew Point 50 °F    
Average Humidity 77    
Maximum Humidity 96    
Minimum Humidity 44    
Precipitation  
Precipitation 0.00 in 0.07 in 1.39 in (2000)
Month to date precipitation 3.24 1.97  
Year to date precipitation 23.47 18.00  
Snow  
Snow 0.00 in 0.00 in - ()
Month to date snowfall 0.0 0.0  
Since 1 July snowfall 0.0 0.0  
Since 1 September snowfall 0.0 0.0  
Snow Depth 0.00 in    
Sea Level Pressure  
Sea Level Pressure 29.86 in    
Wind  
Wind Speed 6 mph ()    
Max Wind Speed 16 mph    
Max Gust Speed 20 mph    
Visibility 10.0 miles    
Events      
T = Trace of Precipitation, MM = Missing Value Source: Averaged Metar Reports

Daily Weather History Graph

Daily Weather History Graph

Search for Another Location

Airport or City:

Astronomy

Sep. 22, 2019 Rise Set
Actual Time 7:13 AM CDT 7:25 PM CDT
Civil Twilight 6:43 AM CDT 7:55 PM CDT
Nautical Twilight 6:07 AM CDT 8:31 PM CDT
Astronomical Twilight 5:30 AM CDT 9:07 PM CDT
Moon No Moon Rise 3:46 PM CDT (9/22)
Length of Visible Light 13h 12m
Length of Day
12h 11m
Last Quarter, 44% of the Moon is Illuminated
Sep 22
Last Quarter
Sep 28
New
Oct 5
First Quarter
Oct 13
Full
Oct 21
Last Quarter

Hourly Weather History & Observations

Time (CDT) Temp. Dew Point Humidity Pressure Visibility Wind Dir Wind Speed Gust Speed Precip Events Conditions
12:53 AM 55.9 °F 53.1 °F 90% 29.81 in 10.0 mi WNW 5.8 mph - N/A   Clear
1:53 AM 53.1 °F 51.1 °F 93% 29.85 in 10.0 mi SW 4.6 mph - N/A   Clear
2:53 AM 53.1 °F 51.1 °F 93% 29.83 in 10.0 mi West 5.8 mph - N/A   Clear
3:53 AM 50.0 °F 48.9 °F 96% 29.84 in 10.0 mi SSW 5.8 mph - N/A   Clear
4:53 AM 50.0 °F 48.9 °F 96% 29.86 in 10.0 mi WSW 5.8 mph - N/A   Clear
5:53 AM 50.0 °F 48.9 °F 96% 29.88 in 10.0 mi SW 8.1 mph - N/A   Clear
6:53 AM 51.1 °F 50.0 °F 96% 29.88 in 10.0 mi West 5.8 mph - N/A   Clear
7:53 AM 51.1 °F 50.0 °F 96% 29.88 in 10.0 mi WSW 6.9 mph - N/A   Clear
8:53 AM 53.1 °F 52.0 °F 96% 29.89 in 10.0 mi SW 4.6 mph - N/A   Clear
9:53 AM 55.0 °F 52.0 °F 89% 29.89 in 10.0 mi West 8.1 mph - N/A   Clear
10:53 AM 57.0 °F 53.1 °F 87% 29.89 in 10.0 mi West 8.1 mph - N/A   Clear
11:53 AM 61.0 °F 54.0 °F 78% 29.88 in 10.0 mi West 5.8 mph - N/A   Clear
12:53 PM 64.9 °F 53.1 °F 65% 29.87 in 10.0 mi Variable 3.5 mph - N/A   Clear
1:53 PM 66.9 °F 52.0 °F 59% 29.85 in 10.0 mi WNW 9.2 mph - N/A   Clear
2:53 PM 66.9 °F 50.0 °F 54% 29.84 in 10.0 mi West 8.1 mph - N/A   Scattered Clouds
3:53 PM 70.0 °F 48.0 °F 46% 29.83 in 10.0 mi WNW 15.0 mph - N/A   Scattered Clouds
4:53 PM 70.0 °F 46.9 °F 44% 29.83 in 10.0 mi West 15.0 mph 18.4 mph N/A   Partly Cloudy
5:53 PM 69.1 °F 46.0 °F 44% 29.84 in 10.0 mi West 13.8 mph - N/A   Partly Cloudy
6:53 PM 64.9 °F 50.0 °F 58% 29.84 in 10.0 mi West 3.5 mph - N/A   Clear
7:53 PM 59.0 °F 51.1 °F 75% 29.85 in 10.0 mi Calm Calm - N/A   Clear
8:53 PM 57.9 °F 50.0 °F 75% 29.86 in 10.0 mi SSW 4.6 mph - N/A   Clear
9:53 PM 55.9 °F 48.9 °F 77% 29.87 in 10.0 mi South 5.8 mph - N/A   Clear
10:53 PM 55.0 °F 48.9 °F 80% 29.88 in 10.0 mi South 6.9 mph - N/A   Clear
11:53 PM 55.9 °F 48.9 °F 77% 29.87 in 10.0 mi South 3.5 mph - N/A   Clear